{"data":{"norad_id":62992,"intl_designator":"2025-031M","name":"STARLINK-11570 [DTC]","alt_names":[],"object_type":"PAYLOAD","status":"ACTIVE","operator":null,"country":"US","launch_date":"2025-02-11","launch_site_code":"AFETR","launch_vehicle":null,"mission":null,"orbit_class":"UNKNOWN","rcs_meters":null,"size_class":null,"mass_kg":null,"dimensions":null,"purposes":["comms"],"wikipedia_slug":null,"has_3d_model":false,"image_url":null,"decayed_at":null,"tle_current":{"epoch":"2026-09-21T16:25:20.578944Z","epoch_age_seconds":62878,"freshness":"FRESH","line1":"1 62992U 25031M   26264.68426596  .00180941  00000+0  13809-2 0  9990","line2":"2 62992  43.0155 260.3824 0002866 270.4371  89.6168 15.70876371 93554","mean_motion":15.70876371,"eccentricity":0.0002866,"inclination_deg":43.0155,"raan_deg":260.3824,"arg_perigee_deg":270.4371,"mean_anomaly_deg":89.6168,"bstar":0.0013809,"rev_number":9355,"period_min":91.66857599897,"perigee_km":354.46099269349,"apogee_km":358.32122420526,"semimajor_km":6734.5281084494,"source":"CELESTRAK","updated_at":"2026-09-22T09:00:49.718785Z"}}}